Time,TemperatureF,DewpointF,PressureIn,WindDirection,WindDirectionDegrees,WindSpeedMPH,WindSpeedGustMPH,Humidity,HourlyPrecipIn,Conditions,Clouds,dailyrainin,SolarRadiationWatts/m^2,SoftwareType,DateUTC
2013-06-04 00:03:00,56.7,49.2,30.04,WNW,291,0.0,0.0,76,0.00,,,0.00,0,Wunderground v.1.15,2013-06-04 07:03:00,
2013-06-04 00:08:00,56.6,49.5,30.04,WNW,291,0.0,0.0,77,0.00,,,0.00,0,Wunderground v.1.15,2013-06-04 07:08:00,
2013-06-04 00:23:00,56.5,49.4,30.04,WNW,291,0.0,0.0,77,0.00,,,0.00,0,Wunderground v.1.15,2013-06-04 07:23:00,
2013-06-04 00:28:00,56.3,49.5,30.04,WNW,291,0.0,0.0,78,0.00,,,0.00,0,Wunderground v.1.15,2013-06-04 07:28:00,
2013-06-04 00:39:00,56.0,49.6,30.04,WNW,289,0.0,0.0,79,0.00,,,0.00,0,Wunderground v.1.15,2013-06-04 07:39:00,
2013-06-04 00:49:00,55.6,49.5,30.04,WNW,289,0.0,0.0,80,0.00,,,0.00,0,Wunderground v.1.15,2013-06-04 07:49:00,
2013-06-04 00:59:00,55.1,49.0,30.04,WNW,288,0.0,0.0,80,0.00,,,0.00,0,Wunderground v.1.15,2013-06-04 07:59:00,
2013-06-04 01:08:00,55.0,49.3,30.05,WNW,288,0.0,0.0,81,0.00,,,0.00,0,Wunderground v.1.15,2013-06-04 08:08:00,
2013-06-04 01:17:00,54.8,49.4,30.05,WNW,288,0.0,0.0,82,0.00,,,0.00,0,Wunderground v.1.15,2013-06-04 08:17:00,
2013-06-04 01:32:00,54.5,49.1,30.05,WNW,288,0.0,0.0,82,0.00,,,0.00,0,Wunderground v.1.15,2013-06-04 08:32:00,
2013-06-04 01:42:00,54.5,49.4,30.05,WNW,288,0.0,0.0,83,0.00,,,0.00,0,Wunderground v.1.15,2013-06-04 08:42:00,
2013-06-04 01:48:00,54.4,49.7,30.04,WNW,288,0.0,0.0,84,0.00,,,0.00,0,Wunderground v.1.15,2013-06-04 08:48:00,
2013-06-04 01:58:00,54.1,49.4,30.04,WNW,288,0.0,0.0,84,0.00,,,0.00,0,Wunderground v.1.15,2013-06-04 08:58:00,
2013-06-04 02:08:00,53.9,48.5,30.05,WNW,287,0.0,0.0,82,0.00,,,0.00,0,Wunderground v.1.15,2013-06-04 09:08:00,
2013-06-04 02:18:00,53.8,48.8,30.05,WNW,282,0.0,0.0,83,0.00,,,0.00,0,Wunderground v.1.15,2013-06-04 09:18:00,
2013-06-04 02:28:00,53.8,48.8,30.05,WNW,282,0.0,0.0,83,0.00,,,0.00,0,Wunderground v.1.15,2013-06-04 09:28:00,
2013-06-04 02:38:00,53.8,48.8,30.05,West,281,0.0,0.0,83,0.00,,,0.00,0,Wunderground v.1.15,2013-06-04 09:38:00,
2013-06-04 02:48:00,53.9,48.9,30.06,WNW,284,0.0,0.0,83,0.00,,,0.00,0,Wunderground v.1.15,2013-06-04 09:48:00,
2013-06-04 02:58:00,53.9,48.9,30.06,WNW,282,0.0,0.0,83,0.00,,,0.00,0,Wunderground v.1.15,2013-06-04 09:58:00,
2013-06-04 03:08:00,53.8,48.8,30.06,WNW,282,0.0,0.0,83,0.00,,,0.00,0,Wunderground v.1.15,2013-06-04 10:08:00,
2013-06-04 03:19:00,53.5,48.8,30.06,West,277,0.0,0.0,84,0.00,,,0.00,0,Wunderground v.1.15,2013-06-04 10:19:00,
2013-06-04 03:29:00,53.2,48.8,30.06,West,264,0.0,0.0,85,0.00,,,0.00,0,Wunderground v.1.15,2013-06-04 10:29:00,
2013-06-04 03:38:00,52.9,48.5,30.06,West,268,0.0,0.0,85,0.00,,,0.00,0,Wunderground v.1.15,2013-06-04 10:38:00,
2013-06-04 03:49:00,52.9,48.8,30.06,West,265,0.0,0.0,86,0.00,,,0.00,0,Wunderground v.1.15,2013-06-04 10:49:00,
2013-06-04 03:59:00,52.6,48.5,30.06,West,267,0.0,0.0,86,0.00,,,0.00,0,Wunderground v.1.15,2013-06-04 10:59:00,
2013-06-04 04:07:00,52.5,48.7,30.06,West,267,0.0,0.0,87,0.00,,,0.00,0,Wunderground v.1.15,2013-06-04 11:07:00,
2013-06-04 04:22:00,52.2,48.8,30.06,West,268,0.0,0.0,88,0.00,,,0.00,0,Wunderground v.1.15,2013-06-04 11:22:00,
2013-06-04 04:32:00,52.0,48.9,30.06,West,268,0.0,0.0,89,0.00,,,0.00,0,Wunderground v.1.15,2013-06-04 11:32:00,
2013-06-04 04:38:00,51.9,48.8,30.06,West,268,0.0,0.0,89,0.00,,,0.00,0,Wunderground v.1.15,2013-06-04 11:38:00,
2013-06-04 04:48:00,51.9,48.8,30.06,West,265,0.0,0.0,89,0.00,,,0.00,0,Wunderground v.1.15,2013-06-04 11:48:00,
2013-06-04 04:58:00,52.0,48.9,30.06,West,264,0.0,0.0,89,0.00,,,0.00,0,Wunderground v.1.15,2013-06-04 11:58:00,
2013-06-04 05:08:00,52.0,48.9,30.06,West,267,0.0,0.0,89,0.00,,,0.00,0,Wunderground v.1.15,2013-06-04 12:08:00,
2013-06-04 05:18:00,51.9,48.8,30.06,West,264,0.0,0.0,89,0.00,,,0.00,7,Wunderground v.1.15,2013-06-04 12:18:00,
2013-06-04 05:28:00,51.9,49.1,30.06,West,263,0.0,0.0,90,0.00,,,0.00,11,Wunderground v.1.15,2013-06-04 12:28:00,
2013-06-04 05:38:00,52.0,49.2,30.06,West,263,0.0,0.0,90,0.00,,,0.00,14,Wunderground v.1.15,2013-06-04 12:38:00,
2013-06-04 05:48:00,52.0,49.2,30.06,West,270,0.0,0.0,90,0.00,,,0.00,18,Wunderground v.1.15,2013-06-04 12:48:00,
2013-06-04 06:13:00,52.3,49.8,30.06,West,270,0.0,0.0,91,0.00,,,0.00,25,Wunderground v.1.15,2013-06-04 13:13:00,
2013-06-04 06:19:00,52.5,49.9,30.07,West,268,0.0,0.0,91,0.00,,,0.00,26,Wunderground v.1.15,2013-06-04 13:19:00,
2013-06-04 06:29:00,52.3,49.8,30.07,West,271,0.0,0.0,91,0.00,,,0.00,32,Wunderground v.1.15,2013-06-04 13:29:00,
2013-06-04 06:39:00,52.3,49.8,30.07,West,270,0.0,0.0,91,0.00,,,0.00,35,Wunderground v.1.15,2013-06-04 13:39:00,
2013-06-04 06:49:00,52.5,49.9,30.07,West,264,0.0,0.0,91,0.00,,,0.00,56,Wunderground v.1.15,2013-06-04 13:49:00,
2013-06-04 06:59:00,52.9,50.0,30.07,WNW,288,0.0,0.0,90,0.00,,,0.00,176,Wunderground v.1.15,2013-06-04 13:59:00,
2013-06-04 07:12:00,53.9,49.8,30.07,WNW,294,1.0,1.0,86,0.00,,,0.00,213,Wunderground v.1.15,2013-06-04 14:12:00,
2013-06-04 07:18:00,54.4,50.0,30.07,WNW,292,1.0,1.0,85,0.00,,,0.00,229,Wunderground v.1.15,2013-06-04 14:18:00,
2013-06-04 07:28:00,55.1,50.0,30.07,WNW,294,0.0,0.0,83,0.00,,,0.00,257,Wunderground v.1.15,2013-06-04 14:28:00,
2013-06-04 07:38:00,56.0,50.3,30.07,WNW,294,1.0,2.0,81,0.00,,,0.00,248,Wunderground v.1.15,2013-06-04 14:38:00,
2013-06-04 07:52:00,56.9,50.1,30.07,WNW,301,1.0,7.0,78,0.00,,,0.00,311,Wunderground v.1.15,2013-06-04 14:52:00,
2013-06-04 07:58:00,56.7,50.3,30.07,NW,308,3.0,7.0,79,0.00,,,0.00,341,Wunderground v.1.15,2013-06-04 14:58:00,
2013-06-04 08:08:00,57.0,50.2,30.07,WNW,295,2.0,3.0,78,0.00,,,0.00,368,Wunderground v.1.15,2013-06-04 15:08:00,
2013-06-04 08:18:00,57.3,50.1,30.07,WNW,298,4.0,4.0,77,0.00,,,0.00,403,Wunderground v.1.15,2013-06-04 15:18:00,
2013-06-04 08:28:00,57.8,49.9,30.07,NW,309,3.0,3.0,75,0.00,,,0.00,399,Wunderground v.1.15,2013-06-04 15:28:00,
2013-06-04 08:38:00,58.0,50.1,30.08,NW,311,4.0,5.0,75,0.00,,,0.00,410,Wunderground v.1.15,2013-06-04 15:38:00,
2013-06-04 08:48:00,58.4,50.1,30.07,NW,311,2.0,2.0,74,0.00,,,0.00,465,Wunderground v.1.15,2013-06-04 15:48:00,
2013-06-04 08:58:00,59.3,50.3,30.07,West,270,2.0,2.0,72,0.00,,,0.00,510,Wunderground v.1.15,2013-06-04 15:58:00,
2013-06-04 09:08:00,59.9,50.8,30.07,WNW,298,2.0,3.0,72,0.00,,,0.00,535,Wunderground v.1.15,2013-06-04 16:08:00,
2013-06-04 09:23:00,59.9,50.8,30.07,WNW,296,3.0,3.0,72,0.00,,,0.00,568,Wunderground v.1.15,2013-06-04 16:23:00,
2013-06-04 09:29:00,60.5,51.0,30.07,NW,313,2.0,5.0,71,0.00,,,0.00,582,Wunderground v.1.15,2013-06-04 16:29:00,
2013-06-04 09:39:00,61.0,50.8,30.08,WNW,287,3.0,3.0,69,0.00,,,0.00,607,Wunderground v.1.15,2013-06-04 16:39:00,
2013-06-04 09:49:00,62.1,51.0,30.08,WNW,285,2.0,4.0,67,0.00,,,0.00,632,Wunderground v.1.15,2013-06-04 16:49:00,
2013-06-04 09:59:00,61.6,51.3,30.08,West,264,3.0,3.0,69,0.00,,,0.00,655,Wunderground v.1.15,2013-06-04 16:59:00,
2013-06-04 10:12:00,63.1,52.0,30.07,WNW,294,2.0,5.0,67,0.00,,,0.00,686,Wunderground v.1.15,2013-06-04 17:12:00,
2013-06-04 10:18:00,63.7,52.1,30.07,WNW,291,3.0,6.0,66,0.00,,,0.00,697,Wunderground v.1.15,2013-06-04 17:18:00,
2013-06-04 10:32:00,64.5,52.0,30.06,NW,313,5.0,5.0,64,0.00,,,0.00,725,Wunderground v.1.15,2013-06-04 17:32:00,
2013-06-04 10:38:00,64.8,52.3,30.06,WNW,292,4.0,5.0,64,0.00,,,0.00,737,Wunderground v.1.15,2013-06-04 17:38:00,
2013-06-04 10:52:00,65.6,52.7,30.06,NW,308,4.0,4.0,63,0.00,,,0.00,764,Wunderground v.1.15,2013-06-04 17:52:00,
2013-06-04 10:58:00,66.0,52.6,30.06,WNW,302,3.0,7.0,62,0.00,,,0.00,772,Wunderground v.1.15,2013-06-04 17:58:00,
2013-06-04 11:08:00,65.8,52.9,30.06,NW,315,5.0,6.0,63,0.00,,,0.00,790,Wunderground v.1.15,2013-06-04 18:08:00,
2013-06-04 11:18:00,66.0,52.2,30.06,NNW,346,6.0,7.0,61,0.00,,,0.00,804,Wunderground v.1.15,2013-06-04 18:18:00,
2013-06-04 11:28:00,66.9,51.6,30.06,NW,312,4.0,5.0,58,0.00,,,0.00,818,Wunderground v.1.15,2013-06-04 18:28:00,
2013-06-04 11:38:00,67.3,52.0,30.06,NW,309,5.0,5.0,58,0.00,,,0.00,834,Wunderground v.1.15,2013-06-04 18:38:00,
2013-06-04 11:48:00,67.9,51.6,30.06,NW,308,5.0,6.0,56,0.00,,,0.00,846,Wunderground v.1.15,2013-06-04 18:48:00,
2013-06-04 11:58:00,68.3,50.5,30.06,WNW,289,6.0,6.0,53,0.00,,,0.00,857,Wunderground v.1.15,2013-06-04 18:58:00,
2013-06-04 12:08:00,68.8,51.0,30.06,WNW,295,7.0,7.0,53,0.00,,,0.00,864,Wunderground v.1.15,2013-06-04 19:08:00,
2013-06-04 12:18:00,69.1,51.8,30.05,WNW,296,7.0,7.0,54,0.00,,,0.00,873,Wunderground v.1.15,2013-06-04 19:18:00,
2013-06-04 12:29:00,69.3,51.4,30.05,NW,308,6.0,10.0,53,0.00,,,0.00,878,Wunderground v.1.15,2013-06-04 19:29:00,
2013-06-04 12:43:00,69.1,51.8,30.05,NW,326,7.0,10.0,54,0.00,,,0.00,885,Wunderground v.1.15,2013-06-04 19:43:00,
2013-06-04 12:49:00,69.3,51.9,30.04,NW,309,8.0,10.0,54,0.00,,,0.00,887,Wunderground v.1.15,2013-06-04 19:49:00,
2013-06-04 12:59:00,70.3,51.3,30.04,WNW,301,6.0,8.0,51,0.00,,,0.00,890,Wunderground v.1.15,2013-06-04 19:59:00,
2013-06-04 13:12:00,69.9,50.9,30.04,WNW,301,8.0,11.0,51,0.00,,,0.00,890,Wunderground v.1.15,2013-06-04 20:12:00,
2013-06-04 13:22:00,70.6,51.1,30.04,NNW,339,7.0,7.0,50,0.00,,,0.00,892,Wunderground v.1.15,2013-06-04 20:22:00,
2013-06-04 13:28:00,71.6,51.4,30.04,WNW,289,6.0,7.0,49,0.00,,,0.00,890,Wunderground v.1.15,2013-06-04 20:28:00,
2013-06-04 13:38:00,71.8,51.0,30.03,NNW,340,5.0,6.0,48,0.00,,,0.00,892,Wunderground v.1.15,2013-06-04 20:38:00,
2013-06-04 13:48:00,72.0,51.2,30.03,WNW,295,5.0,11.0,48,0.00,,,0.00,885,Wunderground v.1.15,2013-06-04 20:48:00,
2013-06-04 14:02:00,72.1,50.2,30.03,NW,326,7.0,7.0,46,0.00,,,0.00,878,Wunderground v.1.15,2013-06-04 21:02:00,
2013-06-04 14:08:00,72.5,50.5,30.03,WNW,288,6.0,7.0,46,0.00,,,0.00,876,Wunderground v.1.15,2013-06-04 21:08:00,
2013-06-04 14:18:00,72.7,50.7,30.03,NW,312,6.0,10.0,46,0.00,,,0.00,866,Wunderground v.1.15,2013-06-04 21:18:00,
2013-06-04 14:28:00,73.0,50.4,30.03,NW,323,5.0,6.0,45,0.00,,,0.00,859,Wunderground v.1.15,2013-06-04 21:28:00,
2013-06-04 14:38:00,73.0,50.4,30.02,WNW,291,6.0,6.0,45,0.00,,,0.00,845,Wunderground v.1.15,2013-06-04 21:38:00,
2013-06-04 14:48:00,73.5,50.9,30.02,NW,308,5.0,7.0,45,0.00,,,0.00,808,Wunderground v.1.15,2013-06-04 21:48:00,
2013-06-04 14:58:00,73.7,50.4,30.02,NW,308,4.0,6.0,44,0.00,,,0.00,818,Wunderground v.1.15,2013-06-04 21:58:00,
2013-06-04 15:09:00,73.5,50.9,30.01,WNW,288,6.0,6.0,45,0.00,,,0.00,804,Wunderground v.1.15,2013-06-04 22:09:00,
2013-06-04 15:18:00,73.5,50.9,30.01,NW,308,7.0,8.0,45,0.00,,,0.00,787,Wunderground v.1.15,2013-06-04 22:18:00,
2013-06-04 15:27:00,73.9,51.2,30.01,WSW,248,6.0,7.0,45,0.00,,,0.00,778,Wunderground v.1.15,2013-06-04 22:27:00,
2013-06-04 15:38:00,73.9,50.0,30.01,West,281,6.0,11.0,43,0.00,,,0.00,757,Wunderground v.1.15,2013-06-04 22:38:00,
2013-06-04 15:52:00,73.9,50.6,30.01,NNW,340,6.0,6.0,44,0.00,,,0.00,727,Wunderground v.1.15,2013-06-04 22:52:00,
2013-06-04 15:58:00,73.7,50.4,30.01,West,270,6.0,7.0,44,0.00,,,0.00,713,Wunderground v.1.15,2013-06-04 22:58:00,
2013-06-04 16:08:00,73.3,48.8,30.00,NW,305,8.0,11.0,42,0.00,,,0.00,693,Wunderground v.1.15,2013-06-04 23:08:00,
2013-06-04 16:22:00,74.2,50.3,30.00,WNW,294,5.0,7.0,43,0.00,,,0.00,660,Wunderground v.1.15,2013-06-04 23:22:00,
2013-06-04 16:28:00,73.9,50.0,30.00,WNW,284,7.0,12.0,43,0.00,,,0.00,648,Wunderground v.1.15,2013-06-04 23:28:00,
2013-06-04 16:43:00,73.9,49.4,30.00,NW,315,7.0,7.0,42,0.00,,,0.00,567,Wunderground v.1.15,2013-06-04 23:43:00,
2013-06-04 16:48:00,74.2,50.3,29.99,WNW,292,6.0,7.0,43,0.00,,,0.00,604,Wunderground v.1.15,2013-06-04 23:48:00,
2013-06-04 16:58:00,74.7,49.4,29.99,NW,313,5.0,6.0,41,0.00,,,0.00,574,Wunderground v.1.15,2013-06-04 23:58:00,
2013-06-04 17:08:00,75.3,47.9,29.99,NW,304,5.0,6.0,38,0.00,,,0.00,549,Wunderground v.1.15,2013-06-05 00:08:00,
2013-06-04 17:19:00,74.6,48.0,29.99,WNW,288,6.0,7.0,39,0.00,,,0.00,519,Wunderground v.1.15,2013-06-05 00:19:00,
2013-06-04 17:29:00,74.4,49.2,29.99,NW,309,6.0,8.0,41,0.00,,,0.00,493,Wunderground v.1.15,2013-06-05 00:29:00,
2013-06-04 17:39:00,74.6,48.0,29.98,WNW,289,6.0,8.0,39,0.00,,,0.00,465,Wunderground v.1.15,2013-06-05 00:39:00,
2013-06-04 17:49:00,74.2,48.3,29.98,WNW,288,6.0,6.0,40,0.00,,,0.00,438,Wunderground v.1.15,2013-06-05 00:49:00,
2013-06-04 17:59:00,74.4,48.5,29.98,North,353,5.0,6.0,40,0.00,,,0.00,408,Wunderground v.1.15,2013-06-05 00:59:00,
2013-06-04 18:09:00,73.9,48.7,29.98,NW,311,6.0,6.0,41,0.00,,,0.00,389,Wunderground v.1.15,2013-06-05 01:09:00,
2013-06-04 18:17:00,73.9,49.4,29.97,WNW,299,7.0,8.0,42,0.00,,,0.00,366,Wunderground v.1.15,2013-06-05 01:17:00,
2013-06-04 18:28:00,73.9,49.4,29.97,NW,306,6.0,7.0,42,0.00,,,0.00,333,Wunderground v.1.15,2013-06-05 01:28:00,
2013-06-04 18:42:00,73.0,48.5,29.97,WNW,296,7.0,11.0,42,0.00,,,0.00,280,Wunderground v.1.15,2013-06-05 01:42:00,
2013-06-04 18:52:00,73.2,50.0,29.97,WNW,282,6.0,6.0,44,0.00,,,0.00,264,Wunderground v.1.15,2013-06-05 01:52:00,
2013-06-04 18:58:00,73.2,50.0,29.97,NNW,344,5.0,6.0,44,0.00,,,0.00,248,Wunderground v.1.15,2013-06-05 01:58:00,
2013-06-04 19:08:00,73.0,50.4,29.97,WNW,282,4.0,6.0,45,0.00,,,0.00,220,Wunderground v.1.15,2013-06-05 02:08:00,
2013-06-04 19:18:00,72.3,49.8,29.96,WNW,289,5.0,7.0,45,0.00,,,0.00,134,Wunderground v.1.15,2013-06-05 02:18:00,
2013-06-04 19:28:00,72.0,50.1,29.96,WNW,288,6.0,6.0,46,0.00,,,0.00,167,Wunderground v.1.15,2013-06-05 02:28:00,
2013-06-04 19:38:00,72.1,50.2,29.96,West,278,4.0,6.0,46,0.00,,,0.00,139,Wunderground v.1.15,2013-06-05 02:38:00,
2013-06-04 19:48:00,71.6,50.3,29.96,NW,305,4.0,4.0,47,0.00,,,0.00,116,Wunderground v.1.15,2013-06-05 02:48:00,
2013-06-04 19:58:00,71.5,50.2,29.96,WNW,294,3.0,3.0,47,0.00,,,0.00,95,Wunderground v.1.15,2013-06-05 02:58:00,
2013-06-04 20:08:00,70.9,50.2,29.96,WNW,295,3.0,3.0,48,0.00,,,0.00,74,Wunderground v.1.15,2013-06-05 03:08:00,
2013-06-04 20:19:00,69.9,49.9,29.96,WNW,287,3.0,3.0,49,0.00,,,0.00,51,Wunderground v.1.15,2013-06-05 03:19:00,
2013-06-04 20:28:00,68.9,48.9,29.96,NW,304,3.0,3.0,49,0.00,,,0.00,32,Wunderground v.1.15,2013-06-05 03:28:00,
2013-06-04 20:39:00,68.4,49.0,29.96,WNW,291,3.0,3.0,50,0.00,,,0.00,23,Wunderground v.1.15,2013-06-05 03:39:00,
2013-06-04 20:49:00,67.6,48.3,29.96,WNW,289,2.0,3.0,50,0.00,,,0.00,14,Wunderground v.1.15,2013-06-05 03:49:00,
2013-06-04 20:59:00,66.9,46.6,29.96,West,272,2.0,3.0,48,0.00,,,0.00,7,Wunderground v.1.15,2013-06-05 03:59:00,
2013-06-04 21:03:00,66.8,45.9,29.96,West,281,2.0,3.0,47,0.00,,,0.00,5,Wunderground v.1.15,2013-06-05 04:03:00,
2013-06-04 21:09:00,66.6,45.7,29.96,WNW,298,2.0,3.0,47,0.00,,,0.00,0,Wunderground v.1.15,2013-06-05 04:09:00,
2013-06-04 21:17:00,66.3,44.3,29.97,NW,309,1.0,2.0,45,0.00,,,0.00,0,Wunderground v.1.15,2013-06-05 04:17:00,
2013-06-04 21:28:00,66.0,44.0,29.97,NW,305,2.0,3.0,45,0.00,,,0.00,0,Wunderground v.1.15,2013-06-05 04:28:00,
2013-06-04 21:32:00,65.8,43.3,29.97,WNW,301,2.0,2.0,44,0.00,,,0.00,0,Wunderground v.1.15,2013-06-05 04:32:00,
2013-06-04 21:38:00,65.8,43.3,29.97,WNW,294,2.0,2.0,44,0.00,,,0.00,0,Wunderground v.1.15,2013-06-05 04:38:00,
2013-06-04 21:48:00,65.6,43.1,29.98,WNW,284,3.0,5.0,44,0.00,,,0.00,0,Wunderground v.1.15,2013-06-05 04:48:00,
2013-06-04 21:58:00,65.5,43.6,29.98,WNW,284,2.0,3.0,45,0.00,,,0.00,0,Wunderground v.1.15,2013-06-05 04:58:00,
2013-06-04 22:08:00,65.2,44.5,29.98,ENE,68,1.0,2.0,47,0.00,,,0.00,0,Wunderground v.1.15,2013-06-05 05:08:00,
2013-06-04 22:18:00,64.8,44.6,29.98,NE,51,0.0,1.0,48,0.00,,,0.00,0,Wunderground v.1.15,2013-06-05 05:18:00,
2013-06-04 22:28:00,64.3,44.7,29.98,SW,223,0.0,0.0,49,0.00,,,0.00,0,Wunderground v.1.15,2013-06-05 05:28:00,
2013-06-04 22:38:00,63.9,44.4,29.98,SW,215,0.0,0.0,49,0.00,,,0.00,0,Wunderground v.1.15,2013-06-05 05:38:00,
2013-06-04 22:53:00,63.9,45.4,29.98,SSW,213,0.0,0.0,51,0.00,,,0.00,0,Wunderground v.1.15,2013-06-05 05:53:00,
2013-06-04 22:58:00,63.9,45.9,29.98,South,186,0.0,0.0,52,0.00,,,0.00,0,Wunderground v.1.15,2013-06-05 05:58:00,
2013-06-04 23:08:00,63.5,46.6,29.98,SSE,164,0.0,1.0,54,0.00,,,0.00,0,Wunderground v.1.15,2013-06-05 06:08:00,
2013-06-04 23:23:00,62.9,46.5,29.98,WNW,295,0.0,0.0,55,0.00,,,0.00,0,Wunderground v.1.15,2013-06-05 06:23:00,
2013-06-04 23:28:00,62.7,45.8,29.98,WNW,294,0.0,0.0,54,0.00,,,0.00,0,Wunderground v.1.15,2013-06-05 06:28:00,
2013-06-04 23:39:00,62.6,46.7,29.98,WNW,295,0.0,0.0,56,0.00,,,0.00,0,Wunderground v.1.15,2013-06-05 06:39:00,
2013-06-04 23:49:00,62.3,46.4,29.98,WNW,292,0.0,0.0,56,0.00,,,0.00,0,Wunderground v.1.15,2013-06-05 06:49:00,
2013-06-04 23:59:00,61.8,46.9,29.98,WNW,292,0.0,0.0,58,0.00,,,0.00,0,Wunderground v.1.15,2013-06-05 06:59:00,